QPF
0.07 0.07 0.09 0.08 0.06 0.04 0.03 0.02 0.01 0.01 0.01 0.02 0.03 0.04 0.02 0.02 0.01 0.01 0.02 0.03 0.02 0.01 0.01 0.01 0.02 0.02 0.03 0.03 0.03 0.04 0.04 0.05 0.06 0.07 0.07 0.07 0.07 0.07 0.07 0.08 0.11 0.14 0.17 0.16
0.05 0.04 0.04 0.05 0.03 0.04 0.03 0.03 0.02 0.01 0.01 0.02 0.04 0.05 0.04 0.01 0.01 0.01 0.01 0.02 0.02 0.01 0.01 0.01 0.01 0.02 0.02 0.02 0.03 0.03 0.04 0.06 0.05 0.05 0.07 0.10 0.10 0.09 0.09 0.07 0.06 0.08 0.14 0.24
0.04 0.02 0.02 0.02 0.03 0.04 0.04 0.03 0.03 0.02 0.02 0.04 0.06 0.06 0.04 0.02 0.01 0.00 0.01 0.01 0.01 0.01 0.00 0.00 0.01 0.01 0.01 0.02 0.02 0.02 0.03 0.05 0.06 0.07 0.07 0.08 0.12 0.12 0.11 0.08 0.06 0.06 0.06 0.10
0.03 0.01 0.01 0.02 0.03 0.04 0.04 0.02 0.03 0.04 0.04 0.06 0.06 0.07 0.03 0.02 0.01 0.00 0.00 0.00 0.00 0.00 0.00 0.00 0.01 0.01 0.01 0.01 0.01 0.02 0.03 0.03 0.04 0.05 0.05 0.06 0.09 0.13 0.11 0.08 0.06 0.05 0.06 0.06
0.03 0.02 0.01 0.02 0.02 0.03 0.03 0.02 0.03 0.05 0.07 0.06 0.05 0.04 0.02 0.01 0.01 0.00 0.00 0.00 0.00 0.00 0.00 0.01 0.01 0.01 0.01 0.01 0.02 0.02 0.03 0.03 0.03 0.03 0.04 0.05 0.06 0.09 0.12 0.11 0.07 0.06 0.05 0.05
0.02 0.02 0.02 0.01 0.01 0.02 0.03 0.03 0.03 0.05 0.06 0.07 0.04 0.03 0.02 0.01 0.01 0.00 0.01 0.01 0.00 0.00 0.00 0.00 0.01 0.01 0.01 0.01 0.03 0.03 0.03 0.03 0.03 0.03 0.03 0.03 0.04 0.05 0.08 0.13 0.12 0.08 0.06 0.05
0.02 0.02 0.02 0.01 0.02 0.03 0.04 0.06 0.07 0.09 0.09 0.06 0.02 0.01 0.01 0.01 0.01 0.01 0.01 0.01 0.00 0.00 0.00 0.00 0.00 0.01 0.01 0.01 0.01 0.02 0.02 0.02 0.03 0.02 0.02 0.02 0.03 0.04 0.04 0.07 0.13 0.12 0.06 0.04
0.03 0.03 0.01 0.01 0.02 0.04 0.04 0.04 0.06 0.07 0.06 0.03 0.01 0.01 0.01 0.01 0.00 0.01 0.01 0.01 0.01 0.00 0.00 0.00 0.00 0.01 0.01 0.01 0.01 0.01 0.02 0.02 0.02 0.02 0.02 0.03 0.04 0.04 0.03 0.04 0.06 0.11 0.09 0.05
0.02 0.02 0.01 0.01 0.01 0.04 0.04 0.04 0.03 0.04 0.03 0.02 0.01 0.01 0.01 0.00 0.00 0.00 0.01 0.01 0.01 0.00 0.00 0.00 0.01 0.01 0.01 0.01 0.01 0.01 0.01 0.02 0.02 0.02 0.02 0.03 0.04 0.04 0.04 0.04 0.05 0.06 0.07 0.07
0.02 0.03 0.02 0.02 0.02 0.03 0.03 0.04 0.04 0.05 0.04 0.03 0.02 0.01 0.01 0.01 0.00 0.01 0.01 0.01 0.01 0.00 0.00 0.00 0.01 0.01 0.01 0.01 0.01 0.01 0.01 0.01 0.01 0.01 0.01 0.02 0.03 0.04 0.04 0.04 0.05 0.06 0.05 0.06
0.01 0.02 0.02 0.01 0.02 0.02 0.03 0.04 0.04 0.05 0.04 0.04 0.02 0.01 0.01 0.01 0.01 0.01 0.00 0.01 0.01 0.00 0.00 0.00 0.01 0.01 0.01 0.01 0.01 0.02 0.01 0.01 0.00 0.00 0.01 0.01 0.02 0.03 0.03 0.03 0.04 0.04 0.05 0.05
0.01 0.02 0.01 0.01 0.01 0.00 0.01 0.03 0.04 0.05 0.04 0.03 0.03 0.01 0.01 0.01 0.01 0.01 0.01 0.00 0.01 0.01 0.01 0.01 0.01 0.01 0.01 0.01 0.01 0.01 0.01 0.01 0.01 0.00 0.01 0.01 0.02 0.02 0.03 0.03 0.03 0.03 0.03 0.04
0.02 0.02 0.01 0.01 0.01 0.01 0.01 0.01 0.03 0.04 0.04 0.03 0.03 0.02 0.01 0.01 0.01 0.01 0.01 0.01 0.00 0.01 0.01 0.01 0.01 0.01 0.01 0.01 0.01 0.01 0.01 0.01 0.01 0.01 0.01 0.01 0.02 0.03 0.03 0.03 0.03 0.02 0.02 0.02
0.02 0.02 0.02 0.01 0.01 0.01 0.01 0.02 0.02 0.03 0.04 0.03 0.01 0.01 0.01 0.01 0.01 0.01 0.02 0.01 0.01 0.01 0.00 0.00 0.00 0.01 0.01 0.01 0.01 0.01 0.01 0.01 0.01 0.01 0.01 0.02 0.03 0.03 0.04 0.03 0.03 0.02 0.02 0.02
0.02 0.03 0.02 0.01 0.01 0.01 0.01 0.01 0.02 0.03 0.03 0.02 0.01 0.01 0.01 0.01 0.01 0.01 0.01 0.02 0.01 0.01 0.01 0.01 0.00 0.01 0.01 0.01 0.01 0.01 0.01 0.01 0.01 0.01 0.01 0.01 0.03 0.03 0.04 0.03 0.03 0.03 0.02 0.02
0.02 0.03 0.02 0.01 0.01 0.01 0.01 0.01 0.02 0.02 0.02 0.02 0.01 0.01 0.02 0.01 0.01 0.01 0.01 0.01 0.02 0.02 0.02 0.01 0.01 0.00 0.01 0.01 0.01 0.00 0.00 0.01 0.01 0.01 0.01 0.01 0.02 0.03 0.04 0.04 0.03 0.03 0.03 0.02
0.02 0.03 0.03 0.02 0.01 0.01 0.01 0.01 0.01 0.02 0.02 0.01 0.02 0.02 0.02 0.02 0.01 0.01 0.02 0.01 0.02 0.02 0.01 0.01 0.01 0.00 0.00 0.01 0.01 0.01 0.01 0.01 0.01 0.01 0.01 0.01 0.01 0.02 0.03 0.03 0.03 0.03 0.03 0.03
0.02 0.03 0.04 0.03 0.02 0.02 0.01 0.01 0.01 0.02 0.02 0.01 0.01 0.02 0.02 0.02 0.02 0.02 0.01 0.01 0.01 0.01 0.01 0.01 0.01 0.01 0.01 0.01 0.01 0.01 0.01 0.01 0.01 0.01 0.01 0.01 0.01 0.01 0.02 0.03 0.02 0.02 0.02 0.02
0.01 0.03 0.04 0.03 0.02 0.01 0.01 0.01 0.01 0.02 0.02 0.01 0.01 0.01 0.02 0.02 0.02 0.01 0.01 0.01 0.01 0.01 0.01 0.01 0.01 0.01 0.01 0.01 0.01 0.02 0.01 0.01 0.01 0.01 0.01 0.01 0.01 0.01 0.01 0.03 0.03 0.02 0.01 0.01
0.01 0.02 0.04 0.03 0.02 0.01 0.00 0.00 0.01 0.01 0.02 0.01 0.01 0.02 0.01 0.01 0.02 0.01 0.01 0.01 0.00 0.01 0.01 0.01 0.01 0.00 0.00 0.00 0.01 0.01 0.01 0.01 0.01 0.01 0.01 0.01 0.01 0.01 0.01 0.01 0.03 0.03 0.02 0.01
0.03 0.03 0.03 0.02 0.03 0.01 0.00 0.00 0.01 0.01 0.01 0.01 0.01 0.01 0.02 0.02 0.02 0.01 0.01 0.01 0.01 0.00 0.00 0.00 0.00 0.00 0.00 0.00 0.00 0.01 0.01 0.01 0.01 0.01 0.01 0.01 0.01 0.01 0.01 0.01 0.02 0.02 0.02 0.01
0.02 0.03 0.02 0.02 0.03 0.01 0.00 0.01 0.01 0.01 0.01 0.00 0.00 0.01 0.01 0.01 0.01 0.01 0.01 0.01 0.01 0.00 0.00 0.00 0.00 0.00 0.00 0.00 0.00 0.01 0.01 0.01 0.02 0.01 0.01 0.01 0.01 0.01 0.01 0.01 0.01 0.02 0.02 0.01
0.01 0.01 0.01 0.02 0.01 0.01 0.01 0.01 0.01 0.01 0.01 0.00 0.00 0.00 0.01 0.01 0.01 0.01 0.01 0.01 0.01 0.00 0.00 0.00 0.00 0.00 0.00 0.00 0.00 0.01 0.01 0.01 0.02 0.01 0.01 0.01 0.01 0.02 0.02 0.02 0.01 0.01 0.02 0.01
0.00 0.00 0.01 0.01 0.01 0.01 0.01 0.01 0.01 0.01 0.01 0.01 0.01 0.00 0.00 0.00 0.00 0.01 0.01 0.01 0.00 0.00 0.00 0.00 0.00 0.00 0.00 0.00 0.00 0.01 0.01 0.01 0.02 0.01 0.01 0.01 0.02 0.02 0.02 0.02 0.02 0.01 0.01 0.02
0.00 0.01 0.01 0.01 0.01 0.01 0.01 0.01 0.01 0.01 0.01 0.00 0.00 0.00 0.00 0.00 0.00 0.00 0.00 0.00 0.00 0.00 0.00 0.01 0.00 0.00 0.00 0.00 0.00 0.01 0.01 0.01 0.01 0.01 0.02 0.02 0.02 0.02 0.02 0.03 0.03 0.03 0.02 0.02
0.00 0.01 0.01 0.01 0.01 0.01 0.01 0.01 0.01 0.01 0.01 0.00 0.00 0.00 0.00 0.00 0.00 0.00 0.00 0.01 0.01 0.00 0.00 0.00 0.01 0.00 0.00 0.00 0.01 0.01 0.01 0.01 0.01 0.01 0.02 0.02 0.02 0.02 0.02 0.02 0.02 0.03 0.03 0.03
MSLP
1013.83 1013.71 1013.65 1013.65 1013.69 1013.74 1013.76 1013.70 1013.50 1013.13 1012.55 1011.77 1010.80 1009.71 1008.57 1007.45 1006.45 1005.62 1005.01 1004.62 1004.43 1004.41 1004.51 1004.69 1004.91 1005.17 1005.45 1005.79 1006.22 1006.76 1007.43 1008.23 1009.13 1010.11 1011.10 1012.07 1012.97 1013.77 1014.47 1015.09 1015.64 1016.16 1016.69 1017.25
1014.30 1014.04 1013.81 1013.64 1013.54 1013.50 1013.49 1013.45 1013.32 1013.05 1012.57 1011.88 1010.97 1009.88 1008.69 1007.48 1006.33 1005.34 1004.56 1004.03 1003.73 1003.64 1003.74 1003.95 1004.25 1004.60 1005.00 1005.46 1005.99 1006.61 1007.34 1008.17 1009.09 1010.05 1011.01 1011.94 1012.81 1013.58 1014.26 1014.87 1015.42 1015.97 1016.52 1017.11
1014.88 1014.45 1014.03 1013.68 1013.41 1013.25 1013.16 1013.11 1013.03 1012.83 1012.46 1011.86 1011.03 1009.98 1008.77 1007.49 1006.24 1005.11 1004.18 1003.49 1003.06 1002.88 1002.92 1003.13 1003.46 1003.88 1004.37 1004.94 1005.57 1006.29 1007.10 1007.98 1008.92 1009.88 1010.83 1011.74 1012.58 1013.33 1013.99 1014.60 1015.17 1015.73 1016.32 1016.93
1015.59 1014.97 1014.35 1013.79 1013.33 1013.02 1012.83 1012.73 1012.66 1012.51 1012.22 1011.72 1010.97 1009.98 1008.80 1007.50 1006.19 1004.97 1003.91 1003.09 1002.53 1002.23 1002.18 1002.33 1002.65 1003.09 1003.64 1004.28 1005.00 1005.81 1006.69 1007.64 1008.62 1009.60 1010.56 1011.46 1012.29 1013.02 1013.69 1014.29 1014.87 1015.45 1016.05 1016.68
1016.43 1015.62 1014.79 1014.01 1013.36 1012.87 1012.55 1012.37 1012.27 1012.14 1011.90 1011.48 1010.82 1009.91 1008.80 1007.53 1006.22 1004.95 1003.81 1002.89 1002.21 1001.79 1001.62 1001.69 1001.94 1002.36 1002.91 1003.57 1004.35 1005.22 1006.17 1007.18 1008.21 1009.23 1010.22 1011.13 1011.96 1012.69 1013.35 1013.96 1014.54 1015.12 1015.72 1016.35
1017.36 1016.37 1015.34 1014.36 1013.51 1012.84 1012.38 1012.10 1011.93 1011.79 1011.57 1011.21 1010.63 1009.82 1008.80 1007.62 1006.35 1005.10 1003.94 1002.96 1002.18 1001.65 1001.36 1001.30 1001.44 1001.77 1002.27 1002.91 1003.69 1004.59 1005.58 1006.64 1007.73 1008.80 1009.82 1010.77 1011.61 1012.35 1013.01 1013.61 1014.18 1014.75 1015.34 1015.97
1018.34 1017.20 1016.00 1014.84 1013.82 1012.99 1012.38 1011.98 1011.73 1011.54 1011.33 1011.01 1010.51 1009.80 1008.90 1007.83 1006.66 1005.48 1004.35 1003.35 1002.51 1001.88 1001.46 1001.25 1001.25 1001.44 1001.82 1002.38 1003.11 1003.99 1004.99 1006.08 1007.21 1008.34 1009.41 1010.39 1011.26 1012.02 1012.68 1013.27 1013.83 1014.38 1014.94 1015.54
1019.28 1018.02 1016.71 1015.43 1014.28 1013.32 1012.59 1012.08 1011.75 1011.51 1011.28 1010.98 1010.55 1009.95 1009.17 1008.24 1007.21 1006.13 1005.08 1004.09 1003.23 1002.51 1001.96 1001.59 1001.41 1001.43 1001.64 1002.06 1002.68 1003.48 1004.45 1005.54 1006.69 1007.86 1008.97 1010.00 1010.91 1011.69 1012.37 1012.95 1013.49 1014.01 1014.55 1015.12
1020.08 1018.78 1017.41 1016.07 1014.86 1013.84 1013.04 1012.45 1012.05 1011.77 1011.52 1011.24 1010.87 1010.36 1009.71 1008.92 1008.04 1007.09 1006.13 1005.20 1004.32 1003.53 1002.86 1002.32 1001.94 1001.74 1001.74 1001.97 1002.43 1003.11 1004.00 1005.05 1006.20 1007.38 1008.53 1009.60 1010.56 1011.37 1012.07 1012.66 1013.18 1013.68 1014.19 1014.73
1020.67 1019.39 1018.04 1016.73 1015.54 1014.52 1013.71 1013.10 1012.67 1012.36 1012.11 1011.85 1011.53 1011.11 1010.57 1009.92 1009.18 1008.36 1007.50 1006.62 1005.74 1004.89 1004.10 1003.39 1002.79 1002.36 1002.13 1002.13 1002.38 1002.90 1003.66 1004.63 1005.73 1006.91 1008.08 1009.19 1010.19 1011.05 1011.77 1012.37 1012.90 1013.38 1013.87 1014.38
1021.02 1019.81 1018.57 1017.36 1016.26 1015.32 1014.57 1014.00 1013.59 1013.30 1013.06 1012.82 1012.55 1012.20 1011.76 1011.23 1010.60 1009.89 1009.12 1008.28 1007.40 1006.49 1005.59 1004.71 1003.91 1003.24 1002.76 1002.51 1002.53 1002.85 1003.44 1004.28 1005.31 1006.44 1007.61 1008.74 1009.78 1010.69 1011.45 1012.09 1012.63 1013.11 1013.59 1014.08
1021.15 1020.08 1018.99 1017.94 1017.00 1016.20 1015.56 1015.08 1014.74 1014.49 1014.29 1014.09 1013.87 1013.58 1013.22 1012.77 1012.23 1011.60 1010.88 1010.07 1009.18 1008.21 1007.20 1006.17 1005.18 1004.29 1003.57 1003.07 1002.85 1002.94 1003.34 1004.03 1004.94 1006.00 1007.14 1008.27 1009.34 1010.28 1011.09 1011.77 1012.35 1012.85 1013.32 1013.80
1021.17 1020.26 1019.35 1018.49 1017.73 1017.10 1016.62 1016.26 1016.02 1015.85 1015.71 1015.56 1015.38 1015.14 1014.83 1014.43 1013.94 1013.35 1012.65 1011.85 1010.93 1009.91 1008.80 1007.64 1006.49 1005.41 1004.47 1003.75 1003.30 1003.16 1003.36 1003.87 1004.63 1005.59 1006.67 1007.78 1008.86 1009.84 1010.70 1011.43 1012.04 1012.58 1013.06 1013.54
1021.21 1020.46 1019.72 1019.05 1018.47 1018.02 1017.69 1017.47 1017.33 1017.25 1017.18 1017.09 1016.95 1016.75 1016.46 1016.08 1015.60 1015.02 1014.32 1013.50 1012.55 1011.47 1010.29 1009.03 1007.75 1006.52 1005.42 1004.50 1003.85 1003.50 1003.50 1003.82 1004.42 1005.26 1006.24 1007.31 1008.37 1009.37 1010.27 1011.05 1011.71 1012.29 1012.79 1013.27
1021.42 1020.80 1020.21 1019.68 1019.26 1018.94 1018.74 1018.63 1018.60 1018.60 1018.60 1018.56 1018.46 1018.27 1018.00 1017.61 1017.12 1016.51 1015.78 1014.92 1013.93 1012.80 1011.57 1010.25 1008.89 1007.57 1006.34 1005.29 1004.47 1003.95 1003.76 1003.90 1004.34 1005.03 1005.90 1006.89 1007.92 1008.92 1009.85 1010.67 1011.39 1012.00 1012.54 1013.03
1021.94 1021.40 1020.89 1020.45 1020.11 1019.88 1019.76 1019.73 1019.77 1019.83 1019.88 1019.88 1019.81 1019.64 1019.35 1018.94 1018.41 1017.76 1016.98 1016.07 1015.03 1013.87 1012.61 1011.26 1009.87 1008.50 1007.22 1006.08 1005.16 1004.50 1004.16 1004.13 1004.41 1004.95 1005.70 1006.60 1007.57 1008.55 1009.49 1010.35 1011.11 1011.76 1012.33 1012.84
1022.81 1022.30 1021.81 1021.39 1021.07 1020.86 1020.76 1020.76 1020.83 1020.93 1021.01 1021.04 1020.97 1020.80 1020.49 1020.05 1019.47 1018.75 1017.91 1016.95 1015.87 1014.69 1013.41 1012.07 1010.69 1009.33 1008.04 1006.88 1005.90 1005.16 1004.71 1004.55 1004.68 1005.07 1005.70 1006.49 1007.39 1008.33 1009.27 1010.14 1010.94 1011.63 1012.24 1012.76
1023.99 1023.46 1022.95 1022.49 1022.13 1021.88 1021.75 1021.74 1021.80 1021.91 1022.00 1022.03 1021.97 1021.78 1021.44 1020.95 1020.31 1019.53 1018.62 1017.61 1016.49 1015.29 1014.03 1012.72 1011.39 1010.08 1008.83 1007.70 1006.71 1005.94 1005.41 1005.15 1005.16 1005.43 1005.93 1006.62 1007.44 1008.33 1009.25 1010.13 1010.95 1011.68 1012.32 1012.87
1025.34 1024.78 1024.21 1023.68 1023.25 1022.93 1022.75 1022.69 1022.73 1022.81 1022.89 1022.92 1022.85 1022.64 1022.27 1021.73 1021.02 1020.17 1019.20 1018.13 1016.98 1015.78 1014.53 1013.27 1012.02 1010.79 1009.62 1008.55 1007.61 1006.83 1006.28 1005.95 1005.87 1006.04 1006.44 1007.02 1007.76 1008.60 1009.49 1010.36 1011.20 1011.96 1012.63 1013.21
1026.66 1026.07 1025.45 1024.86 1024.36 1023.98 1023.74 1023.63 1023.63 1023.69 1023.76 1023.77 1023.68 1023.44 1023.03 1022.44 1021.67 1020.76 1019.73 1018.61 1017.44 1016.23 1015.02 1013.82 1012.64 1011.51 1010.44 1009.46 1008.58 1007.85 1007.30 1006.94 1006.81 1006.90 1007.21 1007.71 1008.37 1009.15 1010.00 1010.87 1011.71 1012.49 1013.19 1013.80
1027.76 1027.16 1026.52 1025.90 1025.37 1024.95 1024.68 1024.55 1024.52 1024.57 1024.62 1024.61 1024.50 1024.23 1023.78 1023.14 1022.32 1021.35 1020.26 1019.10 1017.91 1016.71 1015.54 1014.40 1013.31 1012.29 1011.32 1010.44 1009.65 1008.98 1008.46 1008.11 1007.94 1007.98 1008.22 1008.66 1009.25 1009.98 1010.79 1011.64 1012.48 1013.27 1013.99 1014.62
1028.46 1027.90 1027.29 1026.71 1026.20 1025.80 1025.54 1025.41 1025.40 1025.44 1025.48 1025.46 1025.33 1025.02 1024.53 1023.84 1022.97 1021.95 1020.82 1019.64 1018.43 1017.25 1016.12 1015.05 1014.06 1013.13 1012.28 1011.50 1010.81 1010.21 1009.74 1009.41 1009.24 1009.25 1009.45 1009.82 1010.37 1011.05 1011.82 1012.64 1013.46 1014.25 1014.97 1015.61
1028.70 1028.22 1027.71 1027.22 1026.80 1026.48 1026.29 1026.21 1026.23 1026.29 1026.33 1026.30 1026.13 1025.80 1025.26 1024.52 1023.61 1022.55 1021.40 1020.20 1019.01 1017.85 1016.77 1015.78 1014.87 1014.05 1013.30 1012.63 1012.03 1011.51 1011.10 1010.80 1010.64 1010.64 1010.81 1011.15 1011.65 1012.28 1013.01 1013.80 1014.59 1015.36 1016.07 1016.71
1028.51 1028.17 1027.80 1027.46 1027.18 1026.99 1026.91 1026.92 1027.00 1027.09 1027.14 1027.09 1026.89 1026.51 1025.93 1025.14 1024.19 1023.11 1021.95 1020.76 1019.59 1018.49 1017.47 1016.56 1015.74 1015.01 1014.37 1013.79 1013.28 1012.84 1012.49 1012.23 1012.10 1012.10 1012.25 1012.57 1013.03 1013.61 1014.30 1015.04 1015.80 1016.53 1017.21 1017.82
1028.04 1027.85 1027.65 1027.50 1027.40 1027.38 1027.44 1027.56 1027.70 1027.83 1027.87 1027.80 1027.56 1027.13 1026.50 1025.67 1024.69 1023.60 1022.44 1021.28 1020.16 1019.12 1018.18 1017.35 1016.62 1015.99 1015.44 1014.96 1014.53 1014.16 1013.87 1013.65 1013.54 1013.55 1013.70 1014.00 1014.42 1014.97 1015.60 1016.29 1017.00 1017.68 1018.32 1018.89
1027.48 1027.44 1027.43 1027.47 1027.56 1027.72 1027.92 1028.15 1028.36 1028.50 1028.54 1028.43 1028.13 1027.64 1026.95 1026.09 1025.08 1023.99 1022.86 1021.74 1020.68 1019.72 1018.86 1018.12 1017.49 1016.95 1016.49 1016.08 1015.73 1015.42 1015.18 1015.01 1014.92 1014.95 1015.10 1015.38 1015.77 1016.28 1016.87 1017.50 1018.15 1018.78 1019.36 1019.87
Thickness
5517 5513 5510 5514 5518 5521 5520 5518 5518 5526 5535 5535 5535 5538 5541 5544 5546 5546 5547 5549 5553 5558 5564 5569 5573 5577 5581 5586 5590 5594 5598 5602 5606 5609 5612 5614 5616 5618 5621 5623 5625 5627 5629 5630
5507 5506 5511 5514 5516 5517 5516 5514 5514 5521 5529 5531 5528 5530 5535 5538 5540 5542 5543 5545 5547 5550 5555 5561 5565 5568 5572 5577 5581 5584 5588 5592 5596 5600 5603 5605 5607 5608 5611 5614 5616 5618 5620 5621
5502 5504 5509 5510 5509 5510 5512 5512 5511 5513 5520 5523 5523 5526 5529 5531 5534 5537 5538 5539 5542 5546 5548 5552 5556 5559 5563 5568 5572 5576 5578 5582 5586 5590 5594 5596 5598 5599 5602 5604 5606 5609 5611 5612
5497 5500 5503 5503 5502 5504 5506 5511 5512 5511 5508 5506 5513 5509 5522 5522 5525 5529 5531 5532 5535 5540 5542 5546 5549 5552 5556 5560 5563 5567 5569 5573 5576 5581 5585 5587 5588 5589 5592 5595 5597 5599 5601 5602
5492 5494 5495 5497 5499 5501 5499 5504 5506 5505 5501 5498 5501 5500 5512 5513 5517 5523 5526 5528 5530 5534 5537 5540 5543 5545 5548 5551 5554 5557 5561 5564 5567 5571 5575 5577 5579 5580 5582 5585 5588 5590 5591 5593
5488 5489 5489 5491 5495 5496 5495 5496 5498 5494 5491 5490 5496 5494 5501 5504 5514 5520 5523 5525 5527 5529 5531 5533 5535 5537 5539 5542 5545 5548 5551 5554 5557 5561 5564 5567 5569 5571 5573 5575 5578 5579 5582 5584
5481 5484 5485 5488 5488 5488 5487 5484 5482 5481 5476 5483 5489 5490 5497 5508 5512 5515 5518 5520 5522 5523 5524 5525 5527 5529 5531 5533 5536 5539 5542 5545 5548 5552 5555 5557 5559 5561 5564 5565 5568 5570 5572 5574
5469 5473 5479 5482 5482 5480 5479 5480 5476 5475 5473 5478 5482 5483 5497 5504 5507 5509 5511 5512 5514 5515 5517 5519 5520 5522 5523 5525 5528 5530 5533 5536 5539 5542 5545 5548 5550 5552 5554 5557 5559 5561 5563 5565
5465 5469 5476 5479 5480 5480 5476 5471 5472 5463 5460 5465 5473 5476 5490 5497 5499 5501 5502 5503 5504 5506 5509 5510 5511 5513 5515 5517 5519 5522 5524 5527 5530 5533 5536 5539 5541 5543 5545 5548 5550 5552 5554 5555
5466 5462 5469 5472 5477 5474 5473 5467 5461 5460 5462 5466 5472 5475 5481 5490 5490 5490 5492 5493 5495 5498 5499 5501 5502 5504 5505 5507 5510 5512 5515 5518 5521 5524 5526 5529 5532 5534 5536 5538 5540 5543 5545 5546
5462 5456 5458 5462 5462 5463 5463 5462 5458 5451 5454 5458 5462 5478 5481 5481 5483 5482 5484 5485 5486 5487 5489 5490 5492 5494 5496 5498 5501 5503 5506 5509 5512 5515 5517 5520 5522 5525 5527 5529 5531 5534 5536 5537
5454 5447 5445 5452 5459 5460 5460 5457 5453 5453 5447 5442 5449 5467 5478 5473 5475 5475 5477 5478 5478 5480 5481 5481 5483 5484 5487 5489 5491 5494 5497 5500 5502 5505 5508 5511 5513 5516 5518 5520 5522 5524 5526 5527
5451 5443 5444 5454 5453 5451 5450 5450 5447 5443 5438 5433 5444 5464 5472 5466 5466 5467 5468 5469 5470 5471 5472 5473 5473 5475 5477 5479 5482 5485 5487 5490 5493 5495 5498 5501 5503 5506 5508 5510 5512 5514 5516 5518
5451 5435 5439 5448 5452 5444 5441 5444 5442 5440 5437 5438 5445 5456 5464 5460 5458 5458 5458 5459 5460 5462 5464 5464 5464 5466 5468 5470 5472 5475 5477 5480 5483 5486 5489 5491 5493 5496 5498 5500 5503 5505 5506 5508
5443 5431 5428 5433 5437 5436 5437 5441 5440 5437 5438 5440 5447 5448 5457 5454 5450 5448 5448 5450 5453 5454 5455 5456 5457 5457 5459 5461 5463 5465 5468 5471 5473 5476 5479 5481 5484 5486 5488 5490 5493 5494 5496 5498
5432 5428 5426 5429 5432 5429 5431 5434 5433 5433 5434 5435 5438 5443 5448 5445 5441 5440 5440 5443 5445 5445 5446 5448 5449 5450 5451 5453 5454 5456 5459 5462 5464 5466 5469 5472 5474 5476 5479 5480 5482 5484 5486 5487
5423 5423 5422 5422 5420 5428 5428 5431 5430 5429 5429 5432 5435 5441 5438 5435 5436 5434 5434 5436 5436 5437 5438 5439 5440 5441 5442 5444 5445 5447 5449 5452 5455 5457 5459 5461 5464 5466 5468 5470 5472 5474 5475 5477
5419 5414 5406 5408 5413 5419 5437 5432 5430 5427 5426 5426 5429 5431 5430 5429 5428 5427 5427 5427 5428 5430 5430 5430 5430 5432 5433 5435 5437 5438 5440 5443 5445 5447 5449 5451 5454 5456 5458 5460 5462 5464 5465 5466
5415 5411 5397 5394 5398 5410 5428 5427 5421 5421 5424 5424 5423 5424 5421 5419 5420 5421 5421 5421 5421 5421 5421 5421 5422 5422 5424 5425 5427 5429 5431 5433 5436 5438 5440 5442 5444 5446 5448 5450 5451 5453 5454 5455
5402 5399 5392 5388 5398 5410 5428 5420 5416 5418 5419 5421 5417 5416 5413 5413 5414 5417 5415 5413 5412 5412 5412 5413 5413 5413 5414 5416 5418 5419 5421 5423 5425 5427 5429 5432 5434 5436 5438 5439 5440 5442 5444 5445
5390 5383 5382 5383 5387 5402 5412 5410 5413 5412 5419 5415 5411 5409 5406 5405 5407 5407 5406 5404 5403 5403 5403 5404 5404 5404 5405 5406 5408 5409 5410 5412 5414 5417 5419 5422 5423 5425 5427 5429 5430 5431 5433 5435
5387 5382 5376 5375 5383 5401 5406 5403 5404 5408 5407 5404 5403 5401 5399 5397 5397 5396 5396 5395 5395 5394 5394 5395 5395 5395 5396 5397 5398 5399 5400 5402 5405 5407 5409 5411 5413 5415 5418 5419 5419 5421 5422 5424
5381 5387 5385 5386 5399 5402 5398 5399 5400 5397 5396 5395 5394 5393 5391 5390 5388 5388 5387 5386 5386 5385 5385 5385 5385 5385 5386 5387 5388 5389 5391 5393 5395 5397 5398 5400 5402 5405 5407 5408 5409 5411 5412 5413
5381 5381 5379 5379 5391 5393 5390 5389 5389 5388 5388 5387 5385 5384 5383 5381 5380 5379 5379 5378 5376 5376 5375 5375 5375 5376 5377 5378 5379 5380 5382 5384 5385 5387 5388 5390 5392 5394 5396 5398 5400 5401 5402 5403
5383 5375 5374 5377 5384 5384 5387 5384 5383 5381 5379 5377 5376 5375 5374 5373 5372 5370 5369 5368 5367 5367 5366 5365 5365 5366 5367 5369 5371 5372 5373 5374 5375 5376 5378 5380 5382 5383 5385 5388 5390 5392 5393 5394
5379 5377 5378 5386 5385 5380 5383 5381 5377 5374 5373 5370 5368 5367 5365 5364 5363 5362 5360 5359 5358 5357 5357 5356 5357 5357 5358 5360 5361 5363 5364 5365 5365 5367 5368 5370 5371 5373 5375 5378 5380 5382 5384 5386